Location: Peebles
(55.6412°N, 3.1714°W)
Time: 14:14:56
(UTC+01:00)

CSL-04 Debris - Pass Details

Date: 26 September 2021
Orbit: 826 x 848 km, 98.9° (Epoch: 17 October)

Event Time Altitude Azimuth Distance (km) Brightness Sun altitude
Rises 20:21:26 0° 166° (SSE) 3,364 7.0 -12.1°
Reaches altitude 10° 20:23:47 10° 168° (SSE) 2,432 6.3 -12.4°
Maximum altitude 20:29:11 77° 254° (WSW) 856 4.3 -13.2°
Drops below altitude 10° 20:34:36 10° 341° (NNW) 2,444 7.1 -13.9°
Sets 20:36:58 0° 343° (NNW) 3,381 7.9 -14.2°
